Regional Weather Roundup
Issued by NWS Sioux Falls, SD

Home | Current Version | Previous Version | Text Only | Print | Product List | Glossary On
Versions: 1 2 3 4 5 6 7 8 9 10 11 12 13 14 15 16 17 18 19 20 21 22 23 24 25 26 27 28 29 30 31 32 33 34 35 36 37 38 39 40 41 42 43 44 45 46 47 48 49 50
000
ASUS43 KFSD 010810
RWRFSD

WEATHER ROUNDUP FOR SE SOUTH DAKOTA/SW MINNESOTA/NW IOWA
NATIONAL WEATHER SERVICE SIOUX FALLS SD
300 AM CDT SUN MAY 01 2016

NOTE: "FAIR" INDICATES FEW OR NO CLOUDS BELOW 12,000 FEET WITH NO
SIGNIFICANT WEATHER AND OR OBSTRUCTIONS TO VISIBILITY.


SDZ038>040-050-052>070-010900-
SOUTHEAST SOUTH DAKOTA

CITY           SKY/WX    TMP DP  RH WIND       PRES   REMARKS
BROOKINGS      CLOUDY    41  32  70 NE9       30.12R
CHAMBERLAIN    PTCLDY    43  42  95 N6        30.15S
HURON          CLOUDY    41  32  70 NE10      30.15S
MADISON        CLOUDY    41  41 100 NE10      30.11S
MITCHELL       CLOUDY    44  41  89 N8        30.13S
SIOUX FALLS    CLOUDY    43  39  86 NE13      30.09S
WINNER         CLOUDY    42  39  89 NW6       30.15F
YANKTON        CLOUDY    45  39  81 NE16G23   30.06S
$$

MNZ071-072-080-081-089-090-097-098-010900-
SOUTHWEST MINNESOTA

CITY           SKY/WX    TMP DP  RH WIND       PRES   REMARKS
FAIRMONT       CLOUDY    43  36  75 NE12      30.07S
JACKSON        LGT SNOW  43  41  93 NE20      30.07S
LUVERNE        CLOUDY    41  37  87 NE14      30.08F
MARSHALL       CLOUDY    42  33  70 NE8       30.14R
MONTEVIDEO     PTCLDY    39  30  70 E8        30.17R
REDWOOD FALLS  CLOUDY    44  30  57 NE6       30.12S
TRACY          LGT RAIN  43  39  87 E7        30.12S
WINDOM         DRIZZLE   43  43 100 NE8       30.10S
WORTHINGTON    LGT RAIN  42  40  92 NE17      30.08S
$$

IAZ001>003-012>014-020>022-031-032-NEZ013-014-SDZ071-010900-
NORTHWEST IOWA

CITY           SKY/WX    TMP DP  RH WIND       PRES   REMARKS
CHEROKEE       DRIZZLE   42  42  99 NE10      30.02R
DENISON        CLOUDY    43  43 100 NE16G22   29.94S FOG
ESTHERVILLE    LGT RAIN  41  40  96 NE21G29   30.04F FOG
LE MARS        CLOUDY    45  41  87 NE15      30.04S
ORANGE CITY    CLOUDY    43  41  93 NE13G20   30.03S
SHELDON        MIX PCPN  43  41  93 NE18G26   30.03S
SIOUX CITY     LGT RAIN  44  40  85 NE14      30.01S
SPENCER        CLOUDY    42  40  92 NE18      30.04S FOG
STORM LAKE     CLOUDY    41  41 100 NE17G26   30.00R
$$

ABBREVIATIONS USED IN REMARKS
   TC - TEMPERATURE IN CELSIUS
  WCI - WIND CHILL INDEX
   HX - HEAT INDEX
  VSB - VISIBILITY





USA.gov is the U.S. government's official web portal to all federal, state and local government web resources and services.